Date_and_time,latitude,longitude,wind_speed,RelWindDirFrom,WindDirFrom,air_pressure,air_temperature,relative_humidity,Temp,platform_speed_wrt_ground,air_pressure_at_mean_sea_level,platform_orientation
2018-10-22 00:00,50.6304316666667,-96.980745,7.2,9.7,228,983.55,11.7,35,4.64,0.0,1009.98,12.6
2018-10-22 00:10,50.6304316666667,-96.9807466666667,7.3,9.7,230,983.53,11.2,36,4.63,0.0,1009.98,12.6
2018-10-22 00:20,50.6304316666667,-96.9807483333333,6.5,8.5,227,983.52,10.9,37,4.62,0.0,1009.99,12.6
2018-10-22 00:30,50.6304066666667,-96.9807533333333,6.9,8.9,228,983.46,10.5,37,4.62,0.0,1009.95,12.6
2018-10-22 00:40,50.6303983333333,-96.98074,7.3,9.2,228,983.45,10.2,38,4.61,0.0,1009.97,12.6
2018-10-22 00:50,50.6304116666667,-96.9807733333333,6.9,9.3,228,983.41,10.0,39,4.61,0.0,1009.96,12.6
2018-10-22 01:00,50.6304083333333,-96.9807683333333,5.9,7.2,224,983.31,9.4,41,4.61,0.0,1009.90,203.5
2018-10-22 01:10,50.6304083333333,-96.9807633333333,7.6,10.2,221,983.24,9.0,42,4.61,0.0,1009.88,203.5
2018-10-22 01:20,50.6304133333333,-96.9807683333333,7.7,10.1,224,983.23,8.9,42,4.61,0.0,1009.90,203.5
2018-10-22 01:30,50.6304416666667,-96.9807383333333,7.5,10.2,226,983.19,8.6,43,4.61,0.0,1009.87,203.5
2018-10-22 01:40,50.6304366666667,-96.9807516666667,6.9,8.8,232,983.16,8.4,44,4.61,0.0,1009.87,203.5
2018-10-22 01:50,50.630435,-96.9807533333333,6.0,8.2,234,983.12,8.3,44,4.61,0.0,1009.86,203.5
2018-10-22 02:00,50.630435,-96.9807516666667,5.6,7.7,239,983.10,8.1,44,4.61,0.0,1009.87,345.5
2018-10-22 02:10,50.6304166666667,-96.980755,5.8,7.8,244,983.08,7.9,45,4.62,0.0,1009.87,345.5
2018-10-22 02:20,50.6304183333333,-96.9807633333333,5.5,7.8,244,983.04,7.7,45,4.61,0.0,1009.87,345.5
2018-10-22 02:30,50.630415,-96.9807633333333,6.2,8.1,238,983.02,7.5,46,4.71,0.0,1009.87,345.5
2018-10-22 02:40,50.6304166666667,-96.98076,6.6,9.3,237,983.01,7.4,46,4.60,0.0,1009.88,345.5
2018-10-22 02:50,50.6304266666667,-96.9807483333333,6.6,9.0,234,983.00,7.3,46,4.58,0.0,1009.89,345.5
2018-10-22 03:00,50.6304216666667,-96.9807766666667,7.4,11.0,239,983.03,7.4,46,4.58,0.0,1009.94,237.7
2018-10-22 03:10,50.63041,-96.9807483333333,7.1,9.8,237,983.04,7.3,46,4.58,0.0,1009.96,237.7
2018-10-22 03:20,50.6304166666667,-96.9807566666667,6.4,8.8,234,983.04,7.3,46,4.57,0.0,1009.97,237.7
2018-10-22 03:30,50.630415,-96.9807566666667,6.7,8.6,233,983.02,7.1,47,4.57,0.0,1009.97,237.7
2018-10-22 03:40,50.6304116666667,-96.9807533333333,7.7,10.9,243,982.96,7.2,46,4.56,0.0,1009.92,237.7
2018-10-22 03:50,50.6304083333333,-96.9807516666667,7.0,9.6,245,982.95,7.4,45,4.56,0.0,1009.90,237.7
2018-10-22 04:00,50.630405,-96.9807383333333,6.1,8.7,244,982.91,7.1,46,4.55,0.0,1009.88,107.7
2018-10-22 04:10,50.6304116666667,-96.9807466666667,6.0,7.6,240,982.83,6.7,47,4.55,0.0,1009.83,107.7
2018-10-22 04:20,50.6304116666667,-96.9807583333333,6.3,8.0,237,982.77,6.5,48,4.54,0.0,1009.79,107.7
2018-10-22 04:30,50.6304166666667,-96.9807666666667,6.4,8.9,242,982.78,6.5,48,4.54,0.0,1009.81,107.7
2018-10-22 04:40,50.6304083333333,-96.9807633333333,6.3,8.6,249,982.80,6.3,49,4.54,0.0,1009.84,107.7
2018-10-22 04:50,50.6304083333333,-96.9807633333333,6.2,10.2,257,982.82,6.3,49,4.54,0.0,1009.86,107.7
2018-10-22 05:00,50.6304116666667,-96.980765,7.9,11.2,259,982.86,6.4,49,4.54,0.0,1009.90,212.1
2018-10-22 05:10,50.6304116666667,-96.980765,7.4,10.7,261,982.85,6.5,49,4.54,0.0,1009.88,212.1
2018-10-22 05:20,50.6304133333333,-96.9807616666667,7.4,10.4,263,982.88,6.5,49,4.55,0.0,1009.92,212.1
2018-10-22 05:30,50.630425,-96.980775,7.0,10.5,262,982.92,6.4,49,4.55,0.0,1009.97,212.1
2018-10-22 05:40,50.630425,-96.98076,6.9,11.2,269,982.96,6.3,49,4.55,0.0,1010.00,212.1
2018-10-22 05:50,50.63042,-96.98076,6.9,10.9,277,983.09,6.3,50,4.54,0.0,1010.15,212.1
2018-10-22 06:00,50.6304283333333,-96.980755,7.1,10.8,284,983.18,6.1,50,4.54,0.0,1010.26,60.8
2018-10-22 06:10,50.630425,-96.9807566666667,8.0,12.4,286,983.21,6.4,48,4.53,0.0,1010.29,60.8
2018-10-22 06:20,50.6304233333333,-96.980755,7.6,14.3,293,983.31,6.9,47,4.52,0.0,1010.37,60.8
2018-10-22 06:30,50.63042,-96.9807283333333,9.0,12.8,296,983.37,7.2,46,4.52,0.0,1010.43,60.8
2018-10-22 06:40,50.6304133333333,-96.980745,9.1,13.6,297,983.50,7.2,47,4.51,0.0,1010.57,60.8
2018-10-22 06:50,50.6304166666667,-96.98075,8.7,12.6,298,983.67,7.1,47,4.51,0.0,1010.74,60.8
2018-10-22 07:00,50.6304133333333,-96.9807483333333,8.2,11.7,297,983.82,6.9,48,4.51,0.0,1010.89,347.4
2018-10-22 07:10,50.63041,-96.9807733333333,8.3,12.7,297,983.89,6.8,48,4.51,0.0,1010.97,347.4
2018-10-22 07:20,50.6304116666667,-96.9807683333333,8.0,12.7,296,983.95,6.8,48,4.51,0.0,1011.05,347.4
2018-10-22 07:30,50.6304133333333,-96.9807666666667,8.8,13.1,295,984.10,6.7,49,4.51,0.0,1011.20,347.4
2018-10-22 07:40,50.630415,-96.98077,8.1,13.1,293,984.35,6.6,49,4.50,0.0,1011.46,347.4
2018-10-22 07:50,50.63043,-96.9807483333333,7.1,11.4,292,984.51,6.3,50,4.49,0.0,1011.66,347.4
2018-10-22 08:00,50.6304116666667,-96.9807516666667,6.8,9.9,291,984.63,6.0,51,4.47,0.0,1011.78,90.0
2018-10-22 08:10,50.6304116666667,-96.9807516666667,7.1,10.7,293,984.78,5.8,52,4.44,0.0,1011.92,90.0
2018-10-22 08:20,50.6304116666667,-96.98075,8.2,13.2,299,984.86,5.7,53,4.43,0.0,1011.99,90.0
2018-10-22 08:30,50.630415,-96.9807483333333,9.5,15.2,307,984.94,5.8,52,4.42,0.0,1012.07,90.0
2018-10-22 08:40,50.6304166666667,-96.9807466666667,8.9,13.8,307,985.07,5.8,53,4.41,0.0,1012.21,90.0
2018-10-22 08:50,50.6304183333333,-96.9807466666667,7.8,12.0,304,985.24,5.6,54,4.41,0.0,1012.40,90.0
2018-10-22 09:00,50.63042,-96.980745,7.8,12.3,302,985.31,5.4,54,4.40,0.0,1012.49,119.2
2018-10-22 09:10,50.63042,-96.980745,7.3,11.8,297,985.48,5.2,55,4.40,0.0,1012.68,119.2
2018-10-22 09:20,50.6304216666667,-96.980745,7.9,13.8,298,985.69,5.0,55,4.39,0.0,1012.90,119.2
2018-10-22 09:30,50.6304216666667,-96.980745,8.1,12.7,301,985.83,4.9,56,4.37,0.0,1013.06,119.2
2018-10-22 09:40,50.6304233333333,-96.9807433333333,7.3,10.5,304,986.02,4.8,56,4.36,0.0,1013.28,119.2
2018-10-22 09:50,50.6304583333333,-96.9807533333333,7.0,12.2,299,986.30,4.5,57,4.35,0.0,1013.59,119.2
2018-10-22 10:00,50.63044,-96.9807516666667,8.3,13.8,296,986.37,4.4,58,4.34,0.0,1013.68,9.8
2018-10-22 10:10,50.6304383333333,-96.9807483333333,8.2,12.6,299,986.53,4.2,58,4.35,0.0,1013.85,9.8
2018-10-22 10:20,50.6304333333333,-96.9807083333333,8.6,13.3,300,986.72,4.0,58,4.35,0.0,1014.05,9.8
2018-10-22 10:30,50.6304283333333,-96.98076,8.2,13.0,298,986.98,3.9,57,4.34,0.0,1014.33,9.8
2018-10-22 10:40,50.6303816666667,-96.980735,7.5,10.7,297,987.15,3.7,57,4.33,0.0,1014.52,9.8
2018-10-22 10:50,50.6304233333333,-96.980745,7.8,14.1,296,987.28,3.6,57,4.33,0.0,1014.67,9.8
2018-10-22 11:00,50.6304216666667,-96.980755,9.6,14.2,304,987.33,3.6,56,4.33,0.0,1014.73,311.7
2018-10-22 11:10,50.6304233333333,-96.9807533333333,9.4,15.2,306,987.47,3.5,56,4.31,0.0,1014.89,311.7
2018-10-22 11:20,50.6304216666667,-96.98075,8.3,13.1,303,987.66,3.2,58,4.31,0.0,1015.11,311.7
2018-10-22 11:30,50.63042,-96.98075,7.5,12.1,301,987.86,2.9,59,4.30,0.0,1015.33,311.7
2018-10-22 11:40,50.6304216666667,-96.9807483333333,8.7,14.1,296,987.97,2.7,61,4.29,0.0,1015.47,311.7
2018-10-22 11:50,50.6304216666667,-96.9807483333333,8.9,13.9,301,988.12,2.5,62,4.27,0.0,1015.64,311.7
2018-10-22 12:00,50.6304183333333,-96.98075,10.2,15.8,300,988.18,2.4,62,4.26,0.0,1015.72,192.6
2018-10-22 12:10,50.63042,-96.980745,10.0,18.0,303,988.20,2.4,63,4.24,0.0,1015.74,192.6
2018-10-22 12:20,50.6304033333333,-96.9807583333333,9.5,15.1,301,988.32,2.3,63,4.25,0.0,1015.88,192.6
2018-10-22 12:30,50.63041,-96.9807433333333,8.1,12.9,295,988.47,2.1,64,4.26,0.0,1016.05,192.6
2018-10-22 12:40,50.6304166666667,-96.9807416666667,9.0,14.6,297,988.54,2.0,64,4.24,0.0,1016.14,192.6
2018-10-22 12:50,50.6304216666667,-96.9807416666667,10.3,15.9,298,988.64,2.0,64,4.24,0.0,1016.24,192.6
2018-10-22 13:00,50.6304233333333,-96.9807416666667,10.1,15.1,297,988.74,2.0,65,4.24,0.0,1016.35,156.5
2018-10-22 13:10,50.63023,-96.9806866666667,9.9,14.7,299,988.82,2.0,65,4.24,0.1,1016.45,156.5
2018-10-22 13:20,50.6273366666667,-96.9665083333333,8.8,16.7,316,989.10,2.1,65,4.25,3.4,1016.74,156.5
2018-10-22 13:30,50.6293433333333,-96.92182,12.5,18.0,346,989.35,2.1,67,4.27,10.2,1017.01,156.5
2018-10-22 13:40,50.62679,-96.8792933333333,13.4,18.8,337,989.34,2.3,69,4.07,9.8,1017.00,156.5
2018-10-22 13:50,50.649,-96.8557083333333,25.1,33.0,339,988.80,2.6,69,4.42,9.6,1016.43,156.5
2018-10-22 14:00,50.677355,-96.842325,29.9,35.4,339,987.94,2.6,69,4.56,10.7,1015.55,61.8
2018-10-22 14:10,50.7058516666667,-96.8299516666667,29.6,34.5,341,987.90,2.5,70,4.71,10.6,1015.51,61.8
2018-10-22 14:20,50.7345216666667,-96.8174683333333,28.3,32.0,338,988.42,2.5,72,4.77,10.7,1016.06,61.8
2018-10-22 14:30,50.7633533333333,-96.80537,27.3,31.9,336,988.86,2.5,72,4.79,10.7,1016.53,61.8
2018-10-22 14:40,50.7921616666667,-96.7926483333333,25.8,29.4,333,989.36,2.5,73,4.57,10.8,1017.04,61.8
2018-10-22 14:50,50.8207266666667,-96.77976,27.0,31.6,336,989.11,2.6,73,4.42,10.7,1016.77,61.8
2018-10-22 15:00,50.8439816666667,-96.770855,25.7,30.0,336,989.04,2.6,73,4.71,8.6,1016.69,31.8
2018-10-22 15:10,50.8451833333333,-96.7683016666667,21.6,26.0,321,989.57,2.8,73,4.76,0.7,1017.23,31.8
2018-10-22 15:20,50.845145,-96.7682633333333,21.6,25.7,325,989.47,2.9,74,4.77,0.0,1017.12,31.8
2018-10-22 15:30,50.8451816666667,-96.76817,20.6,24.8,327,989.77,3.1,76,4.77,0.0,1017.41,31.8
2018-10-22 15:40,50.84512,-96.7681816666667,21.8,27.5,330,989.84,3.2,76,4.77,0.0,1017.47,31.8
2018-10-22 15:50,50.84516,-96.7682783333333,22.2,27.8,330,990.02,3.2,76,4.78,0.0,1017.65,31.8
2018-10-22 16:00,50.8435283333333,-96.7568933333333,21.3,26.4,333,991.13,3.0,78,4.79,2.7,1018.80,33.5
2018-10-22 16:10,50.8391783333333,-96.743595,20.5,25.6,344,991.32,2.9,85,4.82,3.4,1019.01,33.5
2018-10-22 16:20,50.8354533333333,-96.7299,18.6,22.8,342,991.53,3.0,87,4.85,3.4,1019.21,33.5
2018-10-22 16:30,50.830825,-96.7094766666667,17.6,22.3,341,991.66,3.2,86,4.84,4.9,1019.34,33.5
2018-10-22 16:40,50.822655,-96.662585,16.5,21.2,1,991.96,3.2,86,4.78,11.1,1019.65,33.5
2018-10-22 16:50,50.8135566666667,-96.616395,17.0,22.3,9,992.13,3.4,84,4.68,11.0,1019.81,33.5
2018-10-22 17:00,50.8027783333333,-96.57115,15.9,21.4,7,992.26,3.3,86,4.74,11.0,1019.94,53.7
2018-10-22 17:10,50.79282,-96.525525,14.4,19.1,355,992.33,3.0,92,4.64,11.0,1020.02,53.7
2018-10-22 17:20,50.77512,-96.4860283333333,13.8,20.7,355,992.52,2.9,93,4.47,11.0,1020.21,53.7
2018-10-22 17:30,50.75915,-96.4520483333333,14.6,22.9,358,992.64,2.7,95,4.41,9.6,1020.33,53.7
2018-10-22 17:40,50.7585533333333,-96.4500583333333,20.8,25.8,332,992.07,3.3,88,4.29,0.5,1019.72,53.7
2018-10-22 17:50,50.7585383333333,-96.4500216666667,22.0,25.8,332,991.88,3.5,84,4.26,0.0,1019.52,53.7
2018-10-22 18:00,50.758565,-96.4498366666667,19.6,24.1,326,992.29,3.2,91,4.24,0.0,1019.96,112.7
2018-10-22 18:10,50.758585,-96.4500783333333,19.5,23.5,333,992.45,3.5,85,4.24,0.1,1020.11,112.7
2018-10-22 18:20,50.773435,-96.47677,27.2,37.1,330,991.78,3.6,85,4.27,8.1,1019.41,112.7
2018-10-22 18:30,50.7906866666667,-96.51361,27.4,33.7,331,992.05,2.9,92,4.35,10.4,1019.72,112.7
2018-10-22 18:40,50.79712,-96.5535433333333,26.4,33.5,329,992.47,3.4,86,4.45,9.4,1020.12,112.7
2018-10-22 18:50,50.7712533333333,-96.5809633333333,16.8,21.7,322,993.79,3.7,83,4.40,11.2,1021.46,112.7
2018-10-22 19:00,50.74511,-96.6076933333333,16.1,21.7,329,994.00,3.6,87,4.25,11.2,1021.69,136.2
2018-10-22 19:10,50.7182716666667,-96.6321066666667,12.7,17.1,322,994.16,3.4,91,4.47,11.1,1021.88,136.2
2018-10-22 19:20,50.6921983333333,-96.65833,12.7,17.7,317,994.33,3.8,87,4.47,11.1,1022.04,136.2
2018-10-22 19:30,50.6660883333333,-96.6847633333333,18.0,24.6,319,994.38,3.8,84,4.65,11.2,1022.06,136.2
2018-10-22 19:40,50.6396183333333,-96.70987,14.8,23.8,329,994.67,3.5,84,4.72,11.1,1022.36,136.2
2018-10-22 19:50,50.614005,-96.7377383333333,12.4,17.6,330,994.86,3.7,81,4.57,11.2,1022.57,136.2
2018-10-22 20:00,50.5877783333333,-96.7642166666667,10.4,16.3,334,995.07,3.8,82,4.24,11.2,1022.77,209.7
2018-10-22 20:10,50.561065,-96.79013,9.5,14.1,334,995.19,3.8,80,3.85,11.3,1022.88,209.7
2018-10-22 20:20,50.5350516666667,-96.8165366666667,8.7,14.6,323,995.26,3.6,81,3.58,11.1,1023.00,209.7
2018-10-22 20:30,50.5171733333333,-96.83344,8.8,15.1,346,995.32,4.0,79,3.88,7.5,1023.01,209.7
2018-10-22 20:40,50.5170916666667,-96.8334966666667,14.7,17.3,5,994.89,3.5,82,4.06,0.0,1022.58,209.7
2018-10-22 20:50,50.5170133333333,-96.83355,15.2,17.7,6,994.97,3.2,84,4.09,0.0,1022.68,209.7
2018-10-22 21:00,50.51697,-96.8335083333333,13.6,16.7,8,995.19,3.2,83,4.09,0.0,1022.92,225.4
2018-10-22 21:10,50.5208766666667,-96.835305,15.1,19.8,7,995.19,3.3,82,4.09,1.5,1022.89,225.4
2018-10-22 21:20,50.5261916666667,-96.8351033333333,15.9,18.0,9,995.21,3.5,77,4.06,1.9,1022.91,225.4
2018-10-22 21:30,50.5317416666667,-96.839925,16.3,20.3,12,995.45,3.6,79,4.03,2.3,1023.16,225.4
2018-10-22 21:40,50.53913,-96.8464116666667,16.0,19.4,17,995.66,3.1,85,3.99,3.0,1023.40,225.4
2018-10-22 21:50,50.5561316666667,-96.8581366666667,17.9,21.7,358,995.43,3.2,82,3.98,6.7,1023.15,225.4
2018-10-22 22:00,50.5811766666667,-96.8743916666667,27.9,33.8,339,994.25,3.7,68,4.11,9.8,1021.91,226.0
2018-10-22 22:10,50.6034433333333,-96.9021733333333,27.6,31.3,334,994.65,3.8,62,4.34,10.2,1022.32,226.0
2018-10-22 22:20,50.6207633333333,-96.9402016666667,24.9,30.4,330,995.40,3.6,60,4.01,10.7,1023.08,226.0
2018-10-22 22:30,50.6245633333333,-96.9770633333333,23.0,29.3,327,996.08,3.5,58,4.21,8.5,1023.82,226.0
2018-10-22 22:40,50.630435,-96.98075,12.9,21.7,329,996.77,3.1,56,4.27,2.3,1024.56,226.0
2018-10-22 22:50,50.6304366666667,-96.9807416666667,10.6,15.6,334,997.06,3.0,57,4.31,0.0,1024.87,226.0
2018-10-22 23:00,50.630445,-96.98075,10.6,15.6,330,997.22,2.8,57,4.32,0.0,1025.04,287.3
2018-10-22 23:10,50.6304383333333,-96.9807483333333,10.5,15.7,342,997.50,2.7,57,4.32,0.0,1025.32,287.3
2018-10-22 23:20,50.6304366666667,-96.9807516666667,10.9,16.0,340,997.60,2.6,56,4.32,0.0,1025.42,287.3
2018-10-22 23:30,50.63042,-96.9807566666667,9.8,17.1,338,997.79,2.5,56,4.32,0.0,1025.65,287.3
2018-10-22 23:40,50.63043,-96.9807566666667,11.7,17.0,340,997.90,2.3,56,4.33,0.0,1025.76,287.3
